Flag for Germany Weather past 2 weeks in Seevetal, Lower Saxony, Germany

Now
63 °F

Passing clouds.


Feels Like: 63 °F
Forecast: 60 / 79 °F
Wind: 5 mph from Northeast

Location: Hamburg-Fuhlsbuettel

Current Time: Jul 23, 2014 at 4:27:12 AM

Latest Report: Jul 23, 2014 at 3:50 AM


Visibility: N/A

Pressure: 30.18 "Hg

Humidity: 88%

Dew point: 59 °F

Location of SeevetalLocation

Historic Weather in Seevetal — Graph

°F

Seevetal temperature yesterday

Maximum temperature yesterday: 82 °F (at 3:20 PM)
Minimum temperature yesterday: 61 °F (at 2:20 AM)
Average temperature yesterday: 72 °F

Past Weeks' High & Low Weather Summary

 TemperatureHumidityPressure
High88 °F (Jul 19, 2:20 PM)100% (Jul 8, 10:50 AM)30.18 "Hg (Jul 8, 10:50 AM)
Low52 °F (Jul 17, 4:20 AM)29% (Jul 19, 6:20 PM)29.59 "Hg (Jul 9, 2:50 PM)
Average69 °F72%29.93 "Hg
* Reported Jul 8 3:20 AM — Jul 23 3:20 AM, Seevetal, Weather by CustomWeather, © 2014

Note: Actual official high and low records may vary slightly from our data, if they occured in-between our weather recording intervals... More about our weather records

Advertising

Seevetal weather history for previous 24 hours

 ConditionsComfort  
Time TempWeatherWind HumidityBarometerVisibility
3:20 AM
Jul 23
63 °FPassing clouds.6 mph94%30.18 "HgN/A
2:50 AM63 °FClear.5 mph94%30.18 "Hg10 mi
2:20 AM63 °FPassing clouds.5 mph88%30.18 "HgN/A
1:50 AM64 °FPassing clouds.6 mph83%30.18 "HgN/A
6:50 PM
Jul 22
79 °FPartly sunny.14 mph51%30.09 "HgN/A
6:20 PM79 °FPartly sunny.18 mph51%30.09 "HgN/A
5:50 PM81 °FPartly sunny.16 mph48%30.09 "HgN/A
5:20 PM81 °FPartly sunny.18 mph42%30.09 "HgN/A
4:50 PM82 °FPartly sunny.17 mph45%30.09 "HgN/A
4:20 PM81 °FPartly sunny.17 mph48%30.09 "HgN/A
3:50 PM81 °FPartly sunny.16 mph45%30.09 "HgN/A
3:20 PM82 °FPartly sunny.17 mph42%30.09 "HgN/A
2:50 PM81 °FPartly sunny.17 mph45%30.09 "HgN/A
2:20 PM81 °FPartly sunny.17 mph45%30.09 "HgN/A
1:50 PM81 °FPartly sunny.17 mph48%30.09 "HgN/A
1:20 PM81 °FPartly sunny.16 mph51%30.09 "HgN/A
12:50 PM79 °FScattered clouds.15 mph54%30.09 "HgN/A
12:20 PM77 °FScattered clouds.15 mph54%30.09 "HgN/A
11:50 AM77 °FPassing clouds.14 mph61%30.09 "HgN/A
11:20 AM77 °FPassing clouds.13 mph61%30.09 "HgN/A
10:50 AM75 °FPassing clouds.12 mph61%30.09 "HgN/A
10:20 AM75 °FPassing clouds.13 mph69%30.09 "HgN/A
9:50 AM73 °FScattered clouds.13 mph69%30.09 "HgN/A
9:20 AM72 °FScattered clouds.13 mph73%30.09 "HgN/A
8:50 AM70 °FScattered clouds.10 mph78%30.07 "HgN/A
8:20 AM68 °FPartly sunny.12 mph83%30.07 "HgN/A
7:50 AM66 °FScattered clouds.9 mph88%30.07 "HgN/A
7:20 AM66 °FPassing clouds.12 mph88%30.04 "HgN/A
6:50 AM64 °FPassing clouds.9 mph88%30.04 "HgN/A
6:20 AM63 °FScattered clouds.8 mph94%30.04 "HgN/A
5:50 AM61 °FPassing clouds.6 mph100%30.04 "HgN/A
5:20 AM63 °FPassing clouds.8 mph94%30.04 "Hg5 mi
4:50 AM63 °FPassing clouds.6 mph94%30.04 "Hg5 mi
4:20 AM61 °FPassing clouds.7 mph100%30.04 "HgN/A
Weather by CustomWeather, © 2014

See weather overviewHow to use our weather pages